OneWeb SL0067

operational
NORAD ID: 45425 Int'l Des: 2020-020 Owner: ONEWEB Country: UK Constellation: oneweb
LEOCIRCULARPOLARONEWEB_TYPE

About OneWeb SL0067

Description loading...

Live Position

Loading 3D Globe...

Upcoming Passes

Altitude History

Altitude vs Time

uPlot chart will show altitude changes over time

Two-Line Element Set

1 45425U 20020B 26034.51219413 -.00000455 00000-0 -13194-2 0 9991
2 45425 87.8830 47.5712 0001904 83.8795 276.2550 13.11415479285217
Epoch: Feb 3, 2026 • Age: 14 hours

Current Status

Altitude 1225.7 km
Velocity 7.24 km/s
Sub-Earth Point -19.44°S, 62.09°E
Launch Date Mar 21, 2020
Age 5.8 years
Type internet

Technical Details

Classification Payload
Mass 148.00 kg
Dry Mass 140.00 kg
Total Mass 148.00 kg
Length 1.30 m
Diameter 1.00 m
Span 5.00 m
Shape Trapezoid+2 pan
Manufacturer ONEWUS
Bus Type ARROW
Phase Status In Orbit
Owner/State ONEWEB/UK

Large Constellations

Loading constellations...